WetterOnline ( https://www.wetteronline.ch )

Wetter aktuell Bielefeld

Aktuelles Wetter: Bad Salzuflen (139m)

6-stündlich | Neueste Meldungen
Ortszeit Temperatur Wetter
Mi, 12.08. 2:00 22.7° C wolkig
Di, 11.08. 20:00 28.2° C wolkig
Di, 11.08. 14:00 32.0° C leicht bewölkt
Fr, 07.08. 8:00 17.3° C wolkenlos
Fr, 07.08. 2:00 19.2° C wolkenlos
Do, 06.08. 20:00 26.9° C fast wolkenlos
Do, 06.08. 14:00 29.3° C wolkenlos
Do, 06.08. 8:00 20.2° C wolkenlos
Ortszeit Temperatur Wetter
Mi, 12.08. 2:00 22.7° C wolkig
Mi, 12.08. 1:50 22.7° C wolkig
Mi, 12.08. 1:40 22.7° C wolkig
Mi, 12.08. 1:30 22.9° C wolkig
Mi, 12.08. 1:20 22.9° C wolkig
Mi, 12.08. 1:10 23.3° C wolkig
Mi, 12.08. 1:00 23.4° C bewölkt
Mi, 12.08. 0:30 23.6° C wolkig
Mi, 12.08. 0:00 23.3° C wolkig
Di, 11.08. 23:30 23.7° C wolkig
Di, 11.08. 23:00 23.4° C wolkig
Ortszeit Relative Feuchte Sichtweite
Mi, 12.08. 2:00 67% 40 km
Di, 11.08. 20:00 47% 40 km
Di, 11.08. 14:00 40% -
Fr, 07.08. 8:00 71% 45 km
Fr, 07.08. 2:00 52% 55 km
Do, 06.08. 20:00 36% 55 km
Do, 06.08. 14:00 30% 45 km
Do, 06.08. 8:00 51% >70 km
Ortszeit Relative Feuchte Sichtweite
Mi, 12.08. 2:00 67% 40 km
Mi, 12.08. 1:50 67% -
Mi, 12.08. 1:40 66% -
Mi, 12.08. 1:30 65% 40 km
Mi, 12.08. 1:20 65% -
Mi, 12.08. 1:10 62% -
Mi, 12.08. 1:00 62% 45 km
Mi, 12.08. 0:30 62% 45 km
Mi, 12.08. 0:00 64% 40 km
Di, 11.08. 23:30 63% 40 km
Di, 11.08. 23:00 66% 40 km
Ortszeit Niederschlagsmenge Niederschlagsart
Mi, 12.08. 2:00 0.0 l/m2 in 6 Std. -
Di, 11.08. 20:00 0.0 l/m2 in 3 Std. -
Di, 11.08. 14:00 0.0 l/m2 in 6 Std. -
Fr, 07.08. 8:00 0.0 l/m2 in 12 Std. -
Fr, 07.08. 2:00 0.0 l/m2 in 6 Std. -
Do, 06.08. 20:00 0.0 l/m2 in 12 Std. -
Do, 06.08. 14:00 0.0 l/m2 in 6 Std. -
Do, 06.08. 8:00 0.0 l/m2 in 12 Std. -
Ortszeit Niederschlagsmenge Niederschlagsart
Mi, 12.08. 2:00 0.0 l/m2 in 1 Std. -
Mi, 12.08. 1:50 keine Meldung -
Mi, 12.08. 1:40 keine Meldung -
Mi, 12.08. 1:30 0.0 l/m2 in 1 Std. -
Mi, 12.08. 1:20 keine Meldung -
Mi, 12.08. 1:10 keine Meldung -
Mi, 12.08. 1:00 0.0 l/m2 in 1 Std. -
Mi, 12.08. 0:30 0.0 l/m2 in 1 Std. -
Mi, 12.08. 0:00 0.0 l/m2 in 1 Std. -
Di, 11.08. 23:30 0.0 l/m2 in 1 Std. -
Di, 11.08. 23:00 0.0 l/m2 in 1 Std. -
Ortszeit Stärke Spitze Richtung
km/h Bft. km/h Grad Sektor
Mi, 12.08. 2:00 7 2 22 20° N
Di, 11.08. 20:00 6 1 31 100° O
Di, 11.08. 14:00 14 3 - 130° SO
Fr, 07.08. 8:00 0 0 7 - -
Fr, 07.08. 2:00 4 1 14 340° N
Do, 06.08. 20:00 4 1 22 140° SO
Do, 06.08. 14:00 7 2 22 160° S
Do, 06.08. 8:00 4 1 7 240° SW
Ortszeit Stärke Spitze Richtung
km/h Bft. km/h Grad Sektor
Mi, 12.08. 2:00 7 2 11 20° N
Mi, 12.08. 1:50 7 2 - 20° N
Mi, 12.08. 1:40 6 1 - 20° N
Mi, 12.08. 1:30 6 1 11 20° N
Mi, 12.08. 1:20 6 1 - 20° N
Mi, 12.08. 1:10 4 1 - 20° N
Mi, 12.08. 1:00 4 1 11 30° NO
Mi, 12.08. 0:30 4 1 11 20° N
Mi, 12.08. 0:00 6 1 17 90° O
Di, 11.08. 23:30 7 2 18 100° O
Di, 11.08. 23:00 6 1 20 80° O
Ortszeit Untergrenze Bedeckung Gattung
total tief tief mittel hoch
Mi, 12.08. 2:00 9000 m 8/8 0/8 - - -
Di, 11.08. 20:00 10500 m 8/8 0/8 - - -
Di, 11.08. 14:00 1800 m 2/8 2/8 - - -
Fr, 07.08. 8:00 - 0/8 0/8 - - -
Fr, 07.08. 2:00 - 0/8 0/8 - - -
Do, 06.08. 20:00 10500 m 2/8 0/8 - - -
Do, 06.08. 14:00 - 0/8 0/8 - - -
Do, 06.08. 8:00 - 0/8 0/8 - - -
Ortszeit Bedeckungsgrad in Achtel und Wolkenuntergrenze
Mi, 12.08. 2:00 8(9000m) 8(9000m) 8(10500m)
Mi, 12.08. 1:50 8(9000m) 8(9000m) 8(10500m)
Mi, 12.08. 1:40 8(9000m) 8(10500m) 8(10500m)
Mi, 12.08. 1:30 1(4200m) 7(9000m) 8(10500m)
Mi, 12.08. 1:20 1(4200m) 7(9000m) 8(10500m)
Mi, 12.08. 1:10 3(4200m) 7(9000m) 8(10500m)
Mi, 12.08. 1:00 7(4200m) 8(9000m) 8(10500m)
Mi, 12.08. 0:30 2(4200m) 8(9000m) 8(10500m)
Mi, 12.08. 0:00 8(9000m)
Di, 11.08. 23:30 8(9000m)
Di, 11.08. 23:00 8(9000m)
Ortszeit Luftdruck NN (hPa) Tendenz (hPa in 3 Std.)
Mi, 12.08. 2:00 1017 + 0,1
Di, 11.08. 20:00 1016 - 0,4
Di, 11.08. 14:00 1017 keine Meldung
Fr, 07.08. 8:00 1022 + 0,7
Fr, 07.08. 2:00 1021 + 0,2
Do, 06.08. 20:00 1020 0,0
Do, 06.08. 14:00 1020 - 0,3
Do, 06.08. 8:00 1020 + 1,2
Ortszeit Luftdruck NN (hPa) Tendenz (hPa in 3 Std.)
Mi, 12.08. 2:00 1017 + 0,1
Mi, 12.08. 1:50 1017 keine Meldung
Mi, 12.08. 1:40 1017 keine Meldung
Mi, 12.08. 1:30 1017 + 0,3
Mi, 12.08. 1:20 1017 keine Meldung
Mi, 12.08. 1:10 1017 keine Meldung
Mi, 12.08. 1:00 1017 + 0,6
Mi, 12.08. 0:30 1017 + 0,6
Mi, 12.08. 0:00 1017 + 0,6
Di, 11.08. 23:30 1017 + 0,8
Di, 11.08. 23:00 1017 + 0,7
Ortszeit Schneehöhe (cm)
Mi, 12.08. 2:00 -
Di, 11.08. 20:00 -
Di, 11.08. 14:00 -
Fr, 07.08. 8:00 -
Fr, 07.08. 2:00 -
Do, 06.08. 20:00 -
Do, 06.08. 14:00 -
Do, 06.08. 8:00 -
Ortszeit Schneehöhe (cm)
Mi, 12.08. 2:00 -
Mi, 12.08. 1:50 -
Mi, 12.08. 1:40 -
Mi, 12.08. 1:30 -
Mi, 12.08. 1:20 -
Mi, 12.08. 1:10 -
Mi, 12.08. 1:00 -
Mi, 12.08. 0:30 -
Mi, 12.08. 0:00 -
Di, 11.08. 23:30 -
Di, 11.08. 23:00 -
Link zu dieser Seite / Seite empfehlen

Das Wetter in ...